THOR AGENA B DEB, 510

Orbit data source: Space-Track

THOR AGENA B DEB, 510 is space debris in LEO originally from a launch on Sat, 29 Sep 1962 UTC launched from the Air Force Western Test Range (AFWTR). Debris objects in space refer to the collection of defunct objects orbiting the Earth. Examples of debris include non-operational satellites, rocket bodies, and fragments generated from explosions, collisions, or faulty payload assembly.

Loading next visibility...
Identifier
510, 1962-049C
Orbit
LEO
Country
Flag of USUS
Related business
Manufacturer
Unknown
Mission
Spacecraft
Bus & Motor
Unknown
Mass
Unknown
Launch date (UTC)
1962-09-29 (63 years ago)
Launch vehicle
Unknown
Launch site
Air Force Western Test Range (AFWTR)
Object type
Payload
Rocket body
Debris
Shape & HBR
Unknown
Radar Cross Section
Small (<0.1 m²)

Expand to show TLE details & history
Last TLE update: 20 hours ago

TLE from 20 hours ago
0 THOR AGENA B DEB
1 00510U 62049C   25242.36508282  .00000091  00000-0  93330-4 0  9998
2 00510  80.5104 252.1665 0016540 121.3353 303.1107 13.70021981142843
Epoch: 2025-08-30T08:45Z
TLE epoch observation values (Epoch: 2025-08-30T08:45:43.155Z)
Latitude
62.79525°
Longitude
160.81091°
Altitude
1,003.551 km
Speed
7.359 km/s
True Right ascension
18h 04m 09s
True Declination
62° 39' 35"
Sunlit
Object was in daylight at epoch
Visualization orbit readout
Latitude
Unknown
Longitude
Unknown
Altitude
Unknown
Speed
Unknown
Apparent Right ascension
Unknown
Apparent Declination
Unknown
Sunlit
N/A
Visualization observer readout
Local Sidereal Time
20:04:54
Azimuth
Unknown
Elevation
Unknown
Doppler factor
Unknown
Orbital elements
Apogee altitude
1,008.954 km
Perigee altitude
984.558 km
Semi-major axis
7,374.893 km
Eccentricity
0.00165
Inclination
80.5104°
RAAN
252.1665°
Arg. of periapsis
121.3353°
True anomaly
302.95176°
Mean anomaly
303.1107°
Eccentric anomaly
303.03125°
Mean motion
3.42696 °/min
Orbital period
105.05 mins
BSTAR
0.00009333
Loading maneuver chart data...
Computing Atmospheric mass density...
Loading historical data...
Loading historical data...
Loading historical data...
Loading historical data...
Loading historical data...
Loading historical data...
Loading historical data...
Other satellites on launch #49 in the year 1962 (1962-09-29 UTC)

Documentation

Showing up to 5 results
|